| time (UTC) | temp F | wind direction | speed MPH | gust MPH | rain 1hr in | rain 24hr in | rain mn in | humidity % | barometer mb |
| 20260506084425 | 75 | 162 | 4.0 | 5.0 | 0.00 | 0.00 | 0.00 | 91 | 1008.8 |
| 20260506083921 | 75 | 186 | 3.0 | 3.0 | 0.00 | 0.00 | 0.00 | 91 | 1008.7 |
| 20260506083419 | 75 | 163 | 2.0 | 3.0 | 0.00 | 0.00 | 0.00 | 91 | 1008.7 |
| 20260506082916 | 75 | 221 | 3.0 | 5.0 | 0.00 | 0.00 | 0.00 | 91 | 1008.7 |
| 20260506082413 | 75 | 177 | 1.0 | 2.0 | 0.00 | 0.00 | 0.00 | 91 | 1008.7 |
| 20260506081908 | 75 | 162 | 1.0 | 2.0 | 0.00 | 0.00 | 0.00 | 91 | 1008.8 |
| 20260506081407 | 75 | 173 | 3.0 | 3.0 | 0.00 | 0.00 | 0.00 | 90 | 1008.9 |
| 20260506080904 | 75 | 186 | 2.0 | 3.0 | 0.00 | 0.00 | 0.00 | 90 | 1008.8 |
| 20260506080400 | 75 | 169 | 2.0 | 3.0 | 0.00 | 0.00 | 0.00 | 90 | 1008.8 |
| 20260506073344 | 75 | 247 | 6.0 | 9.0 | 0.00 | 0.00 | 0.00 | 91 | 1009.0 |
| 20260506072841 | 75 | 169 | 3.0 | 3.0 | 0.00 | 0.00 | 0.00 | 91 | 1009.1 |
| 20260506072339 | 75 | 173 | 5.0 | 7.0 | 0.00 | 0.00 | 0.00 | 91 | 1009.0 |
| 20260506071837 | 75 | 161 | 2.0 | 3.0 | 0.00 | 0.00 | 0.00 | 91 | 1009.0 |
| 20260506071335 | 75 | 176 | 2.0 | 3.0 | 0.00 | 0.00 | 0.00 | 91 | 1009.0 |
| 20260506070831 | 75 | 155 | 2.0 | 2.0 | 0.00 | 0.00 | 0.00 | 91 | 1008.9 |
| 20260506070328 | 75 | 156 | 5.0 | 5.0 | 0.00 | 0.00 | 0.00 | 91 | 1009.0 |
| 20260506062306 | 75 | 157 | 1.0 | 2.0 | 0.00 | 0.00 | 0.00 | 92 | 1008.6 |
| 20260506061801 | 75 | 171 | 2.0 | 2.0 | 0.00 | 0.00 | 0.00 | 92 | 1008.7 |
| 20260506061258 | 75 | 176 | 4.0 | 5.0 | 0.00 | 0.00 | 0.00 | 92 | 1008.8 |
| 20260506060757 | 75 | 144 | 3.0 | 5.0 | 0.00 | 0.00 | 0.00 | 92 | 1008.5 |
| 20260506060254 | 75 | 163 | 3.0 | 5.0 | 0.00 | 0.00 | 0.00 | 92 | 1008.6 |
| 20260506051225 | 75 | 177 | 8.0 | 12.0 | 0.00 | 0.00 | 0.00 | 92 | 1008.6 |
| 20260506050724 | 75 | 160 | 4.0 | 5.0 | 0.00 | 0.00 | 0.00 | 92 | 1008.7 |
| 20260506050221 | 75 | 166 | 2.0 | 2.0 | 0.00 | 0.00 | 0.00 | 92 | 1008.6 |
| 20260506044712 | 75 | 193 | 1.0 | 2.0 | 0.00 | 0.00 | 0.00 | 91 | 1008.7 |
| 20260506044209 | 75 | 141 | 4.0 | 9.0 | 0.00 | 0.00 | 0.00 | 91 | 1008.8 |
| 20260506043707 | 75 | 149 | 4.0 | 5.0 | 0.00 | 0.00 | 0.00 | 91 | 1008.7 |
| 20260506043204 | 75 | 159 | 4.0 | 5.0 | 0.00 | 0.00 | 0.00 | 91 | 1008.9 |
| 20260506042703 | 75 | 182 | 4.0 | 5.0 | 0.00 | 0.00 | 0.00 | 91 | 1008.7 |
| 20260506042201 | 75 | 173 | 4.0 | 5.0 | 0.00 | 0.00 | 0.00 | 90 | 1008.7 |
| 20260506041659 | 75 | 162 | 2.0 | 3.0 | 0.00 | 0.00 | 0.00 | 90 | 1008.7 |
| 20260506041155 | 75 | 155 | 2.0 | 2.0 | 0.00 | 0.00 | 0.00 | 90 | 1008.7 |
| 20260506040653 | 76 | 144 | 3.0 | 5.0 | 0.00 | 0.00 | 0.00 | 90 | 1008.6 |
| 20260506040150 | 76 | 168 | 3.0 | 5.0 | 0.00 | 0.00 | 0.00 | 90 | 1008.6 |
| 20260506035647 | 76 | 150 | 6.0 | 7.0 | 0.00 | 0.00 | 0.00 | 89 | 1008.4 |
| 20260506035143 | 76 | 158 | 2.0 | 3.0 | 0.00 | 0.00 | 0.00 | 89 | 1008.3 |
| 20260506034640 | 76 | 173 | 4.0 | 5.0 | 0.00 | 0.00 | 0.00 | 89 | 1008.2 |
| 20260506034137 | 76 | 152 | 2.0 | 2.0 | 0.00 | 0.00 | 0.00 | 89 | 1008.1 |
| 20260506033635 | 76 | 138 | 2.0 | 3.0 | 0.00 | 0.00 | 0.00 | 89 | 1008.1 |
| 20260506033131 | 76 | 174 | 5.0 | 7.0 | 0.00 | 0.00 | 0.00 | 89 | 1007.9 |
| 20260506032629 | 76 | 167 | 4.0 | 5.0 | 0.00 | 0.00 | 0.00 | 89 | 1008.1 |
| 20260506032126 | 76 | 166 | 5.0 | 5.0 | 0.00 | 0.00 | 0.00 | 89 | 1008.0 |
| 20260506031623 | 76 | 160 | 2.0 | 3.0 | 0.00 | 0.00 | 0.00 | 89 | 1007.8 |
| 20260506031119 | 76 | 165 | 2.0 | 3.0 | 0.00 | 0.00 | 0.00 | 89 | 1008.0 |
| 20260506030618 | 76 | 160 | 2.0 | 2.0 | 0.00 | 0.00 | 0.00 | 88 | 1007.8 |
| 20260506030115 | 76 | 154 | 5.0 | 7.0 | 0.00 | 0.00 | 0.00 | 89 | 1007.5 |
| 20260506025612 | 77 | 134 | 6.0 | 9.0 | 0.00 | 0.00 | 0.00 | 88 | 1007.4 |
| 20260506025107 | 77 | 155 | 5.0 | 5.0 | 0.00 | 0.00 | 0.00 | 88 | 1007.4 |
| 20260506024605 | 77 | 161 | 0.0 | 0.0 | 0.00 | 0.00 | 0.00 | 88 | 1007.4 |
| 20260506024101 | 77 | 149 | 2.0 | 3.0 | 0.00 | 0.00 | 0.00 | 88 | 1007.4 |
| 20260506023557 | 77 | 148 | 0.0 | 0.0 | 0.00 | 0.00 | 0.00 | 88 | 1007.1 |
| 20260506023055 | 77 | 162 | 4.0 | 5.0 | 0.00 | 0.00 | 0.00 | 87 | 1007.0 |
| 20260506022552 | 77 | 161 | 7.0 | 9.0 | 0.00 | 0.00 | 0.00 | 87 | 1007.0 |
| 20260506022050 | 77 | 154 | 3.0 | 5.0 | 0.00 | 0.00 | 0.00 | 87 | 1006.9 |
| 20260506021547 | 77 | 153 | 2.0 | 2.0 | 0.00 | 0.00 | 0.00 | 87 | 1007.0 |
| 20260506021044 | 77 | 157 | 2.0 | 3.0 | 0.00 | 0.00 | 0.00 | 86 | 1006.8 |
| 20260506020542 | 77 | 158 | 2.0 | 2.0 | 0.00 | 0.00 | 0.00 | 86 | 1006.6 |
| 20260506020039 | 78 | 141 | 3.0 | 3.0 | 0.00 | 0.00 | 0.00 | 86 | 1006.9 |
| 20260506015536 | 78 | 162 | 6.0 | 9.0 | 0.00 | 0.00 | 0.00 | 85 | 1006.8 |
| 20260506015033 | 78 | 156 | 2.0 | 3.0 | 0.00 | 0.00 | 0.00 | 85 | 1006.5 |
| 20260506014530 | 78 | 164 | 4.0 | 5.0 | 0.00 | 0.00 | 0.00 | 86 | 1006.4 |
| 20260506014026 | 78 | 137 | 3.0 | 3.0 | 0.00 | 0.00 | 0.00 | 85 | 1006.6 |
| 20260506013525 | 78 | 160 | 3.0 | 5.0 | 0.00 | 0.00 | 0.00 | 84 | 1006.6 |
| 20260506013021 | 78 | 152 | 3.0 | 5.0 | 0.00 | 0.00 | 0.00 | 84 | 1006.5 |
| 20260506012517 | 78 | 155 | 2.0 | 3.0 | 0.00 | 0.00 | 0.00 | 84 | 1006.2 |
| 20260506012014 | 78 | 164 | 2.0 | 2.0 | 0.00 | 0.00 | 0.00 | 84 | 1006.5 |
| 20260506011512 | 79 | 148 | 0.0 | 0.0 | 0.00 | 0.00 | 0.00 | 84 | 1006.5 |
| 20260506011008 | 79 | 146 | 2.0 | 2.0 | 0.00 | 0.00 | 0.00 | 83 | 1006.4 |
| 20260506010507 | 80 | 150 | 0.0 | 0.0 | 0.00 | 0.00 | 0.00 | 82 | 1006.4 |
| 20260506010002 | 80 | 171 | 3.0 | 3.0 | 0.00 | 0.00 | 0.00 | 81 | 1006.3 |
| 20260506005500 | 80 | 151 | 3.0 | 3.0 | 0.00 | 0.00 | 0.00 | 81 | 1006.3 |
| 20260506004955 | 80 | 136 | 4.0 | 5.0 | 0.00 | 0.00 | 0.00 | 81 | 1006.3 |
| 20260506004454 | 80 | 155 | 0.0 | 0.0 | 0.00 | 0.00 | 0.00 | 80 | 1006.3 |
| 20260506003949 | 81 | 163 | 2.0 | 3.0 | 0.00 | 0.00 | 0.00 | 79 | 1006.4 |
| 20260506003446 | 81 | 173 | 2.0 | 3.0 | 0.00 | 0.00 | 0.00 | 79 | 1006.3 |
| 20260506002942 | 81 | 156 | 2.0 | 2.0 | 0.00 | 0.00 | 0.00 | 79 | 1006.5 |
| 20260506002438 | 81 | 165 | 2.0 | 2.0 | 0.00 | 0.00 | 0.00 | 79 | 1006.5 |
| 20260506001934 | 81 | 167 | 0.0 | 2.0 | 0.00 | 0.00 | 0.00 | 79 | 1006.6 |
| 20260506001431 | 81 | 168 | 1.0 | 2.0 | 0.00 | 0.00 | 0.00 | 79 | 1006.4 |
| 20260506000929 | 81 | 174 | 4.0 | 5.0 | 0.00 | 0.00 | 0.00 | 78 | 1006.3 |
| 20260506000426 | 82 | 163 | 1.0 | 2.0 | 0.00 | 0.00 | 0.00 | 78 | 1006.5 |
| 20260505235923 | 82 | 167 | 2.0 | 3.0 | 0.00 | 0.00 | 0.00 | 78 | 1006.3 |
| 20260505235421 | 82 | 165 | 2.0 | 3.0 | 0.00 | 0.00 | 0.00 | 77 | 1006.4 |
| 20260505234917 | 82 | 175 | 2.0 | 3.0 | 0.00 | 0.00 | 0.00 | 78 | 1006.2 |
| 20260505234415 | 82 | 159 | 4.0 | 5.0 | 0.00 | 0.00 | 0.00 | 77 | 1006.2 |
| 20260505233911 | 82 | 159 | 3.0 | 3.0 | 0.00 | 0.00 | 0.00 | 76 | 1006.2 |
| 20260505233409 | 82 | 160 | 2.0 | 3.0 | 0.00 | 0.00 | 0.00 | 77 | 1006.1 |
| 20260505232907 | 82 | 235 | 6.0 | 9.0 | 0.00 | 0.00 | 0.00 | 76 | 1006.0 |
| 20260505232404 | 82 | 192 | 3.0 | 3.0 | 0.00 | 0.00 | 0.00 | 76 | 1005.9 |
| 20260505231901 | 82 | 205 | 6.0 | 7.0 | 0.00 | 0.00 | 0.00 | 75 | 1006.1 |
| 20260505231358 | 83 | 172 | 2.0 | 3.0 | 0.00 | 0.00 | 0.00 | 76 | 1005.9 |
| 20260505230857 | 83 | 158 | 2.0 | 3.0 | 0.00 | 0.00 | 0.00 | 76 | 1005.8 |
| 20260505230354 | 83 | 189 | 4.0 | 5.0 | 0.00 | 0.00 | 0.00 | 75 | 1005.9 |
| 20260505225850 | 83 | 155 | 5.0 | 5.0 | 0.00 | 0.00 | 0.00 | 76 | 1005.8 |
| 20260505225348 | 83 | 186 | 8.0 | 12.0 | 0.00 | 0.00 | 0.00 | 74 | 1005.8 |
| 20260505224842 | 83 | 163 | 3.0 | 5.0 | 0.00 | 0.00 | 0.00 | 76 | 1006.0 |
| 20260505224341 | 83 | 170 | 10.0 | 12.0 | 0.00 | 0.00 | 0.00 | 74 | 1005.9 |
| 20260505223837 | 83 | 107 | 11.0 | 14.0 | 0.00 | 0.00 | 0.00 | 75 | 1005.8 |
| 20260505223334 | 83 | 208 | 1.0 | 3.0 | 0.00 | 0.00 | 0.00 | 75 | 1006.1 |
| 20260505222830 | 83 | 208 | 6.0 | 7.0 | 0.00 | 0.00 | 0.00 | 74 | 1005.9 |
| 20260505222326 | 83 | 186 | 6.0 | 7.0 | 0.00 | 0.00 | 0.00 | 74 | 1005.8 |
| 20260505221824 | 83 | 162 | 4.0 | 5.0 | 0.00 | 0.00 | 0.00 | 75 | 1006.1 |
| 20260505221320 | 82 | 236 | 8.0 | 12.0 | 0.00 | 0.00 | 0.00 | 74 | 1006.2 |
| 20260505220817 | 84 | 173 | 4.0 | 5.0 | 0.00 | 0.00 | 0.00 | 74 | 1006.0 |
| 20260505220314 | 83 | 161 | 4.0 | 5.0 | 0.00 | 0.00 | 0.00 | 76 | 1006.2 |
| 20260505215813 | 84 | 225 | 7.0 | 10.0 | 0.00 | 0.00 | 0.00 | 73 | 1006.2 |
| 20260505215310 | 84 | 196 | 4.0 | 5.0 | 0.00 | 0.00 | 0.00 | 74 | 1006.0 |
| 20260505214808 | 83 | 213 | 6.0 | 7.0 | 0.00 | 0.00 | 0.00 | 74 | 1006.2 |
| 20260505214305 | 82 | 160 | 4.0 | 7.0 | 0.00 | 0.00 | 0.00 | 75 | 1006.3 |
| 20260505213802 | 82 | 172 | 5.0 | 7.0 | 0.00 | 0.00 | 0.00 | 75 | 1006.4 |
| 20260505213300 | 84 | 175 | 6.0 | 7.0 | 0.00 | 0.00 | 0.00 | 73 | 1006.3 |
| 20260505212755 | 83 | 224 | 6.0 | 9.0 | 0.00 | 0.00 | 0.00 | 74 | 1006.5 |
| 20260505212253 | 83 | 166 | 6.0 | 7.0 | 0.00 | 0.00 | 0.00 | 74 | 1006.4 |
| 20260505211749 | 84 | 207 | 8.0 | 10.0 | 0.00 | 0.00 | 0.00 | 73 | 1006.4 |
| 20260505211247 | 83 | 210 | 5.0 | 7.0 | 0.00 | 0.00 | 0.00 | 74 | 1006.6 |
| 20260505210743 | 83 | 195 | 7.0 | 10.0 | 0.00 | 0.00 | 0.00 | 73 | 1006.6 |
| 20260505210240 | 82 | 177 | 3.0 | 5.0 | 0.00 | 0.00 | 0.00 | 77 | 1006.9 |
| 20260505205737 | 82 | 143 | 3.0 | 7.0 | 0.00 | 0.00 | 0.00 | 76 | 1006.8 |
| 20260505205235 | 83 | 215 | 7.0 | 10.0 | 0.00 | 0.00 | 0.00 | 74 | 1006.7 |
| 20260505204731 | 83 | 191 | 6.0 | 10.0 | 0.00 | 0.00 | 0.00 | 74 | 1006.8 |
| 20260505204229 | 83 | 188 | 8.0 | 10.0 | 0.00 | 0.00 | 0.00 | 74 | 1007.0 |
| 20260505203726 | 82 | 211 | 6.0 | 10.0 | 0.00 | 0.00 | 0.00 | 76 | 1007.1 |
| 20260505203223 | 84 | 186 | 6.0 | 7.0 | 0.00 | 0.00 | 0.00 | 75 | 1007.1 |
| 20260505202719 | 83 | 191 | 6.0 | 7.0 | 0.00 | 0.00 | 0.00 | 74 | 1007.3 |
| 20260505202215 | 83 | 236 | 4.0 | 7.0 | 0.00 | 0.00 | 0.00 | 75 | 1007.2 |
| 20260505201712 | 82 | 160 | 7.0 | 10.0 | 0.00 | 0.00 | 0.00 | 75 | 1007.3 |
| 20260505201210 | 82 | 216 | 4.0 | 5.0 | 0.00 | 0.00 | 0.00 | 77 | 1007.3 |
| 20260505200708 | 82 | 221 | 5.0 | 9.0 | 0.00 | 0.00 | 0.00 | 75 | 1007.5 |
| 20260505200204 | 82 | 200 | 11.0 | 15.0 | 0.00 | 0.00 | 0.00 | 75 | 1007.6 |
| 20260505195700 | 82 | 158 | 3.0 | 7.0 | 0.00 | 0.00 | 0.00 | 76 | 1007.6 |
| 20260505195158 | 82 | 179 | 7.0 | 10.0 | 0.00 | 0.00 | 0.00 | 76 | 1007.7 |
| 20260505194655 | 82 | 182 | 8.0 | 10.0 | 0.00 | 0.00 | 0.00 | 76 | 1007.8 |
| 20260505194151 | 81 | 150 | 2.0 | 2.0 | 0.00 | 0.00 | 0.00 | 78 | 1007.8 |
| 20260505193647 | 81 | 205 | 8.0 | 10.0 | 0.00 | 0.00 | 0.00 | 77 | 1007.8 |
| 20260505193144 | 81 | 234 | 4.0 | 10.0 | 0.00 | 0.00 | 0.00 | 79 | 1007.9 |
| 20260505192643 | 80 | 196 | 9.0 | 10.0 | 0.00 | 0.00 | 0.00 | 78 | 1008.1 |
| 20260505192140 | 80 | 246 | 9.0 | 12.0 | 0.00 | 0.00 | 0.00 | 78 | 1008.0 |
| 20260505191639 | 80 | 202 | 4.0 | 5.0 | 0.00 | 0.00 | 0.00 | 79 | 1008.1 |
| 20260505191136 | 80 | 198 | 10.0 | 12.0 | 0.00 | 0.00 | 0.00 | 79 | 1008.1 |
| 20260505190632 | 80 | 165 | 8.0 | 12.0 | 0.00 | 0.00 | 0.00 | 78 | 1008.2 |
| 20260505190127 | 81 | 216 | 7.0 | 10.0 | 0.00 | 0.00 | 0.00 | 78 | 1008.4 |
| 20260505185624 | 79 | 172 | 4.0 | 5.0 | 0.00 | 0.00 | 0.00 | 81 | 1008.2 |
| 20260505185120 | 79 | 184 | 4.0 | 5.0 | 0.00 | 0.00 | 0.00 | 80 | 1008.2 |
| 20260505184617 | 79 | 243 | 11.0 | 15.0 | 0.00 | 0.00 | 0.00 | 79 | 1008.3 |
| 20260505184114 | 78 | 234 | 5.0 | 7.0 | 0.00 | 0.00 | 0.00 | 82 | 1008.7 |
| 20260505183610 | 78 | 227 | 12.0 | 14.0 | 0.00 | 0.00 | 0.00 | 81 | 1008.7 |
| 20260505183108 | 77 | 223 | 4.0 | 5.0 | 0.00 | 0.00 | 0.00 | 83 | 1008.8 |
| 20260505182604 | 77 | 164 | 5.0 | 7.0 | 0.00 | 0.00 | 0.00 | 83 | 1008.9 |
| 20260505182101 | 77 | 235 | 7.0 | 9.0 | 0.00 | 0.00 | 0.00 | 82 | 1008.8 |
| 20260505181558 | 77 | 169 | 4.0 | 7.0 | 0.00 | 0.00 | 0.00 | 83 | 1008.6 |
| 20260505181055 | 77 | 213 | 13.0 | 17.0 | 0.00 | 0.00 | 0.00 | 82 | 1008.5 |
| 20260505180550 | 77 | 183 | 6.0 | 10.0 | 0.00 | 0.00 | 0.00 | 82 | 1008.4 |
| 20260505180049 | 77 | 192 | 6.0 | 9.0 | 0.00 | 0.00 | 0.00 | 83 | 1008.7 |
| 20260505175549 | 78 | 232 | 14.0 | 15.0 | 0.00 | 0.00 | 0.00 | 80 | 1008.7 |
| 20260505175046 | 77 | 149 | 4.0 | 7.0 | 0.00 | 0.00 | 0.00 | 82 | 1008.9 |
| 20260505174543 | 77 | 233 | 6.0 | 9.0 | 0.00 | 0.00 | 0.00 | 84 | 1008.9 |
| 20260505174039 | 77 | 242 | 6.0 | 10.0 | 0.00 | 0.00 | 0.00 | 83 | 1008.9 |
| 20260505173536 | 77 | 225 | 6.0 | 7.0 | 0.00 | 0.00 | 0.00 | 84 | 1008.7 |
| 20260505173033 | 77 | 168 | 6.0 | 10.0 | 0.00 | 0.00 | 0.00 | 83 | 1008.9 |
| 20260505172531 | 77 | 224 | 6.0 | 9.0 | 0.00 | 0.00 | 0.00 | 84 | 1008.9 |
| 20260505172027 | 76 | 224 | 6.0 | 9.0 | 0.00 | 0.00 | 0.00 | 86 | 1008.9 |
| 20260505171522 | 75 | 229 | 7.0 | 12.0 | 0.00 | 0.00 | 0.00 | 86 | 1009.1 |
| 20260505171019 | 75 | 208 | 11.0 | 14.0 | 0.00 | 0.00 | 0.00 | 87 | 1009.2 |
| 20260505170516 | 74 | 210 | 4.0 | 7.0 | 0.00 | 0.00 | 0.00 | 87 | 1009.3 |
| 20260505170012 | 74 | 236 | 7.0 | 9.0 | 0.00 | 0.00 | 0.00 | 87 | 1009.2 |
| 20260505165507 | 74 | 285 | 8.0 | 9.0 | 0.00 | 0.00 | 0.00 | 88 | 1009.0 |
| 20260505165004 | 74 | 259 | 7.0 | 10.0 | 0.00 | 0.00 | 0.00 | 88 | 1009.2 |
| 20260505164459 | 74 | 220 | 9.0 | 14.0 | 0.00 | 0.00 | 0.00 | 88 | 1009.3 |
| 20260505163958 | 74 | 203 | 2.0 | 3.0 | 0.00 | 0.00 | 0.00 | 88 | 1009.1 |
| 20260505163451 | 74 | 229 | 8.0 | 12.0 | 0.00 | 0.00 | 0.00 | 88 | 1009.2 |
| 20260505162950 | 74 | 196 | 6.0 | 9.0 | 0.00 | 0.00 | 0.00 | 88 | 1009.2 |
| 20260505162445 | 74 | 241 | 5.0 | 7.0 | 0.00 | 0.00 | 0.00 | 88 | 1009.3 |
| 20260505161942 | 74 | 220 | 6.0 | 7.0 | 0.00 | 0.00 | 0.00 | 88 | 1009.2 |
| 20260505161438 | 74 | 148 | 3.0 | 3.0 | 0.00 | 0.00 | 0.00 | 88 | 1009.1 |
| 20260505160935 | 74 | 247 | 8.0 | 10.0 | 0.00 | 0.00 | 0.00 | 87 | 1009.2 |
| 20260505160434 | 74 | 209 | 6.0 | 9.0 | 0.00 | 0.00 | 0.00 | 88 | 1009.2 |
| 20260505152910 | 73 | 200 | 5.0 | 7.0 | 0.00 | 0.00 | 0.00 | 88 | 1008.9 |
| 20260505152407 | 73 | 237 | 11.0 | 14.0 | 0.00 | 0.00 | 0.00 | 88 | 1009.1 |
| 20260505151907 | 73 | 229 | 7.0 | 15.0 | 0.00 | 0.00 | 0.00 | 88 | 1009.0 |
| 20260505151404 | 73 | 180 | 2.0 | 2.0 | 0.00 | 0.00 | 0.00 | 88 | 1009.1 |
| 20260505150901 | 73 | 202 | 5.0 | 5.0 | 0.00 | 0.00 | 0.00 | 88 | 1009.1 |
| 20260505150358 | 73 | 181 | 5.0 | 10.0 | 0.00 | 0.00 | 0.00 | 89 | 1009.2 |
| 20260505140322 | 72 | 230 | 7.0 | 9.0 | 0.00 | 0.00 | 0.00 | 90 | 1008.5 |
| 20260505130240 | 71 | 167 | 2.0 | 3.0 | 0.00 | 0.00 | 0.00 | 90 | 1008.5 |
| 20260505124731 | 71 | 220 | 4.0 | 7.0 | 0.00 | 0.00 | 0.00 | 89 | 1008.1 |
| 20260505124227 | 71 | 188 | 3.0 | 3.0 | 0.00 | 0.00 | 0.00 | 89 | 1008.3 |
| 20260505123723 | 71 | 176 | 8.0 | 10.0 | 0.00 | 0.00 | 0.00 | 88 | 1008.2 |
| 20260505123220 | 71 | 199 | 3.0 | 3.0 | 0.00 | 0.00 | 0.00 | 88 | 1008.0 |
| 20260505122716 | 71 | 166 | 1.0 | 2.0 | 0.00 | 0.00 | 0.00 | 89 | 1007.9 |
| 20260505122214 | 71 | 237 | 10.0 | 12.0 | 0.00 | 0.00 | 0.00 | 88 | 1007.8 |
| 20260505121710 | 71 | 234 | 7.0 | 10.0 | 0.00 | 0.00 | 0.00 | 88 | 1007.8 |
| 20260505121206 | 71 | 181 | 4.0 | 7.0 | 0.00 | 0.00 | 0.00 | 88 | 1007.6 |
| 20260505120703 | 71 | 155 | 4.0 | 5.0 | 0.00 | 0.00 | 0.00 | 88 | 1007.5 |
| 20260505120159 | 71 | 263 | 4.0 | 7.0 | 0.00 | 0.00 | 0.00 | 89 | 1007.5 |
| 20260505115658 | 71 | 204 | 6.0 | 10.0 | 0.00 | 0.00 | 0.00 | 88 | 1007.5 |
| 20260505115156 | 71 | 161 | 4.0 | 5.0 | 0.00 | 0.00 | 0.00 | 89 | 1007.6 |
| 20260505114654 | 71 | 175 | 5.0 | 7.0 | 0.00 | 0.00 | 0.00 | 89 | 1007.6 |
| 20260505114149 | 71 | 219 | 5.0 | 7.0 | 0.00 | 0.00 | 0.00 | 89 | 1007.4 |
| 20260505113646 | 70 | 212 | 3.0 | 9.0 | 0.00 | 0.00 | 0.00 | 89 | 1007.6 |
| 20260505113143 | 70 | 166 | 7.0 | 10.0 | 0.00 | 0.00 | 0.00 | 89 | 1007.5 |
| 20260505112639 | 70 | 165 | 4.0 | 5.0 | 0.00 | 0.00 | 0.00 | 89 | 1007.8 |
| 20260505112137 | 70 | 163 | 2.0 | 3.0 | 0.00 | 0.00 | 0.00 | 89 | 1007.3 |
| 20260505111637 | 70 | 191 | 3.0 | 5.0 | 0.00 | 0.00 | 0.00 | 89 | 1007.6 |
| 20260505111133 | 70 | 254 | 6.0 | 7.0 | 0.00 | 0.00 | 0.00 | 88 | 1007.7 |
| 20260505110629 | 70 | 194 | 3.0 | 5.0 | 0.00 | 0.00 | 0.00 | 88 | 1007.9 |
| 20260505110127 | 70 | 194 | 4.0 | 5.0 | 0.00 | 0.00 | 0.00 | 89 | 1007.9 |
| 20260505102102 | 70 | 219 | 6.0 | 7.0 | 0.00 | 0.00 | 0.00 | 88 | 1007.6 |
| 20260505101601 | 70 | 182 | 6.0 | 9.0 | 0.00 | 0.00 | 0.00 | 88 | 1007.5 |
| 20260505101056 | 70 | 239 | 8.0 | 10.0 | 0.00 | 0.00 | 0.00 | 88 | 1007.8 |
| 20260505100553 | 70 | 177 | 9.0 | 12.0 | 0.00 | 0.00 | 0.00 | 88 | 1007.7 |
| 20260505100050 | 70 | 184 | 4.0 | 9.0 | 0.00 | 0.00 | 0.00 | 88 | 1007.7 |
| 20260505095546 | 71 | 159 | 3.0 | 5.0 | 0.00 | 0.00 | 0.00 | 88 | 1008.0 |
| 20260505095043 | 71 | 161 | 2.0 | 3.0 | 0.00 | 0.00 | 0.00 | 88 | 1007.6 |
| 20260505094539 | 71 | 168 | 6.0 | 9.0 | 0.00 | 0.00 | 0.00 | 88 | 1007.8 |
| 20260505094036 | 71 | 207 | 2.0 | 3.0 | 0.00 | 0.00 | 0.00 | 88 | 1007.7 |
| 20260505093532 | 71 | 197 | 6.0 | 7.0 | 0.00 | 0.00 | 0.00 | 88 | 1007.6 |
| 20260505093030 | 71 | 133 | 4.0 | 5.0 | 0.00 | 0.00 | 0.00 | 88 | 1007.8 |
| 20260505092527 | 71 | 168 | 10.0 | 19.0 | 0.00 | 0.00 | 0.00 | 88 | 1007.9 |
| 20260505092025 | 71 | 199 | 8.0 | 12.0 | 0.00 | 0.00 | 0.00 | 87 | 1008.0 |
| 20260505091522 | 71 | 158 | 3.0 | 7.0 | 0.00 | 0.00 | 0.00 | 87 | 1008.1 |
| 20260505091020 | 71 | 236 | 6.0 | 9.0 | 0.00 | 0.00 | 0.00 | 87 | 1008.1 |
| 20260505090518 | 71 | 210 | 4.0 | 7.0 | 0.00 | 0.00 | 0.00 | 87 | 1008.0 |
| 20260505090015 | 71 | 178 | 3.0 | 5.0 | 0.00 | 0.00 | 0.00 | 88 | 1008.0 |
| 20260505085513 | 71 | 193 | 5.0 | 7.0 | 0.00 | 0.00 | 0.00 | 88 | 1007.8 |
| 20260505085011 | 71 | 189 | 4.0 | 5.0 | 0.00 | 0.00 | 0.00 | 88 | 1008.0 |